Time,TemperatureF,DewpointF,PressureIn,WindDirection,WindDirectionDegrees,WindSpeedMPH,WindSpeedGustMPH,Humidity,HourlyPrecipIn,Conditions,Clouds,dailyrainin,SolarRadiationWatts/m^2,SoftwareType,DateUTC
2013-08-08 00:00:00,50.0,49.0,-100.00,West,270,0.0,-999.0,94,-99.99,,,-99.99,0.000000,,2013-08-08 04:00:00,
2013-08-08 00:44:00,50.0,49.0,-100.00,West,270,0.0,-999.0,94,-99.99,,,-99.99,0.000000,,2013-08-08 04:44:00,
2013-08-08 00:53:00,50.0,49.0,-100.00,West,270,0.0,-999.0,94,-99.99,,,-99.99,0.000000,,2013-08-08 04:53:00,
2013-08-08 01:00:00,49.0,48.0,-100.00,NE,45,0.0,-999.0,96,-99.99,,,-99.99,0.000000,,2013-08-08 05:00:00,
2013-08-08 01:33:00,49.0,48.0,-100.00,NE,45,0.0,-999.0,96,-99.99,,,-99.99,0.000000,,2013-08-08 05:33:00,
2013-08-08 01:43:00,49.0,48.0,-100.00,NE,45,0.0,-999.0,96,-99.99,,,-99.99,0.000000,,2013-08-08 05:43:00,
2013-08-08 01:52:00,49.0,48.0,-100.00,NE,45,0.0,-999.0,96,-99.99,,,-99.99,0.000000,,2013-08-08 05:52:00,
2013-08-08 02:00:00,47.0,47.0,-100.00,WNW,292,0.0,-999.0,96,-99.99,,,-99.99,0.000000,,2013-08-08 06:00:00,
2013-08-08 02:43:00,47.0,47.0,-100.00,WNW,292,0.0,-999.0,96,-99.99,,,-99.99,0.000000,,2013-08-08 06:43:00,
2013-08-08 02:52:00,47.0,47.0,-100.00,WNW,292,0.0,-999.0,96,-99.99,,,-99.99,0.000000,,2013-08-08 06:52:00,
2013-08-08 03:00:00,46.0,45.0,-100.00,NW,315,0.0,-999.0,97,-99.99,,,-99.99,0.000000,,2013-08-08 07:00:00,
2013-08-08 03:32:00,46.0,45.0,-100.00,NW,315,0.0,-999.0,97,-99.99,,,-99.99,0.000000,,2013-08-08 07:32:00,
2013-08-08 03:43:00,46.0,45.0,-100.00,NW,315,0.0,-999.0,97,-99.99,,,-99.99,0.000000,,2013-08-08 07:43:00,
2013-08-08 03:53:00,46.0,45.0,-100.00,NW,315,0.0,-999.0,97,-99.99,,,-99.99,0.000000,,2013-08-08 07:53:00,
2013-08-08 04:00:00,45.0,45.0,-100.00,NW,315,0.0,-999.0,97,-99.99,,,-99.99,0.000000,,2013-08-08 08:00:00,
2013-08-08 04:43:00,45.0,45.0,-100.00,NW,315,0.0,-999.0,97,-99.99,,,-99.99,0.000000,,2013-08-08 08:43:00,
2013-08-08 04:53:00,45.0,45.0,-100.00,NW,315,0.0,-999.0,97,-99.99,,,-99.99,0.000000,,2013-08-08 08:53:00,
2013-08-08 05:00:00,46.0,45.0,-100.00,West,270,0.0,-999.0,97,-99.99,,,-99.99,0.000000,,2013-08-08 09:00:00,
2013-08-08 05:43:00,46.0,45.0,-100.00,West,270,0.0,-999.0,97,-99.99,,,-99.99,0.000000,,2013-08-08 09:43:00,
2013-08-08 05:53:00,46.0,45.0,-100.00,West,270,0.0,-999.0,97,-99.99,,,-99.99,0.000000,,2013-08-08 09:53:00,
2013-08-08 06:00:00,45.0,44.0,-100.00,WSW,247,0.0,-999.0,97,-99.99,,,-99.99,0.000000,,2013-08-08 10:00:00,
2013-08-08 06:33:00,45.0,44.0,-100.00,WSW,247,0.0,-999.0,97,-99.99,,,-99.99,0.000000,,2013-08-08 10:33:00,
2013-08-08 06:43:00,45.0,44.0,-100.00,WSW,247,0.0,-999.0,97,-99.99,,,-99.99,0.000000,,2013-08-08 10:43:00,
2013-08-08 06:52:00,45.0,44.0,-100.00,WSW,247,0.0,-999.0,97,-99.99,,,-99.99,0.000000,,2013-08-08 10:52:00,
2013-08-08 07:00:00,45.0,45.0,-100.00,WSW,247,1.0,-999.0,97,-99.99,,,-99.99,4.640000,,2013-08-08 11:00:00,
2013-08-08 07:43:00,45.0,45.0,-100.00,WSW,247,1.0,-999.0,97,-99.99,,,-99.99,4.640000,,2013-08-08 11:43:00,
2013-08-08 07:52:00,45.0,45.0,-100.00,WSW,247,1.0,-999.0,97,-99.99,,,-99.99,4.640000,,2013-08-08 11:52:00,
2013-08-08 08:00:00,50.0,49.0,-100.00,NW,315,2.0,-999.0,93,-99.99,,,-99.99,92.800003,,2013-08-08 12:00:00,
2013-08-08 08:43:00,50.0,49.0,-100.00,NW,315,2.0,-999.0,93,-99.99,,,-99.99,92.800003,,2013-08-08 12:43:00,
2013-08-08 08:53:00,50.0,49.0,-100.00,NW,315,2.0,-999.0,93,-99.99,,,-99.99,92.800003,,2013-08-08 12:53:00,
2013-08-08 09:00:00,56.0,50.0,-100.00,NW,315,3.0,-999.0,79,-99.99,,,-99.99,251.720001,,2013-08-08 13:00:00,
2013-08-08 09:32:00,56.0,50.0,-100.00,NW,315,3.0,-999.0,79,-99.99,,,-99.99,251.720001,,2013-08-08 13:32:00,
2013-08-08 09:43:00,56.0,50.0,-100.00,NW,315,3.0,-999.0,79,-99.99,,,-99.99,251.720001,,2013-08-08 13:43:00,
2013-08-08 09:53:00,56.0,50.0,-100.00,NW,315,3.0,-999.0,79,-99.99,,,-99.99,251.720001,,2013-08-08 13:53:00,
2013-08-08 10:00:00,62.0,52.0,-100.00,WNW,292,3.0,-999.0,70,-99.99,,,-99.99,372.359985,,2013-08-08 14:00:00,
2013-08-08 10:32:00,62.0,52.0,-100.00,WNW,292,3.0,-999.0,70,-99.99,,,-99.99,372.359985,,2013-08-08 14:32:00,
2013-08-08 10:43:00,62.0,52.0,-100.00,WNW,292,3.0,-999.0,70,-99.99,,,-99.99,372.359985,,2013-08-08 14:43:00,
2013-08-08 10:53:00,62.0,52.0,-100.00,WNW,292,3.0,-999.0,70,-99.99,,,-99.99,372.359985,,2013-08-08 14:53:00,
2013-08-08 11:00:00,68.0,52.0,-100.00,West,270,2.0,-999.0,56,-99.99,,,-99.99,553.320007,,2013-08-08 15:00:00,
2013-08-08 11:43:00,68.0,52.0,-100.00,West,270,2.0,-999.0,56,-99.99,,,-99.99,553.320007,,2013-08-08 15:43:00,
2013-08-08 11:53:00,68.0,52.0,-100.00,West,270,2.0,-999.0,56,-99.99,,,-99.99,553.320007,,2013-08-08 15:53:00,
2013-08-08 12:00:00,70.0,50.0,-100.00,WSW,247,3.0,-999.0,48,-99.99,,,-99.99,641.479980,,2013-08-08 16:00:00,
2013-08-08 12:32:00,70.0,50.0,-100.00,WSW,247,3.0,-999.0,48,-99.99,,,-99.99,641.479980,,2013-08-08 16:32:00,
2013-08-08 12:42:00,70.0,50.0,-100.00,WSW,247,3.0,-999.0,48,-99.99,,,-99.99,641.479980,,2013-08-08 16:42:00,
2013-08-08 12:52:00,70.0,50.0,-100.00,WSW,247,3.0,-999.0,48,-99.99,,,-99.99,641.479980,,2013-08-08 16:52:00,
2013-08-08 13:00:00,71.0,49.0,-100.00,West,270,3.0,-999.0,46,-99.99,,,-99.99,678.599976,,2013-08-08 17:00:00,
2013-08-08 13:32:00,71.0,49.0,-100.00,West,270,3.0,-999.0,46,-99.99,,,-99.99,678.599976,,2013-08-08 17:32:00,
2013-08-08 13:43:00,71.0,49.0,-100.00,West,270,3.0,-999.0,46,-99.99,,,-99.99,678.599976,,2013-08-08 17:43:00,
2013-08-08 13:52:00,71.0,49.0,-100.00,West,270,3.0,-999.0,46,-99.99,,,-99.99,678.599976,,2013-08-08 17:52:00,
2013-08-08 14:00:00,73.0,49.0,-100.00,WSW,247,4.0,-999.0,43,-99.99,,,-99.99,844.479980,,2013-08-08 18:00:00,
2013-08-08 14:32:00,73.0,49.0,-100.00,WSW,247,4.0,-999.0,43,-99.99,,,-99.99,844.479980,,2013-08-08 18:32:00,
2013-08-08 14:43:00,73.0,49.0,-100.00,WSW,247,4.0,-999.0,43,-99.99,,,-99.99,844.479980,,2013-08-08 18:43:00,
2013-08-08 14:53:00,73.0,49.0,-100.00,WSW,247,4.0,-999.0,43,-99.99,,,-99.99,844.479980,,2013-08-08 18:53:00,
2013-08-08 15:00:00,75.0,50.0,-100.00,WSW,247,3.0,-999.0,41,-99.99,,,-99.99,780.679993,,2013-08-08 19:00:00,
2013-08-08 15:32:00,75.0,50.0,-100.00,WSW,247,3.0,-999.0,41,-99.99,,,-99.99,780.679993,,2013-08-08 19:32:00,
2013-08-08 15:43:00,75.0,50.0,-100.00,WSW,247,3.0,-999.0,41,-99.99,,,-99.99,780.679993,,2013-08-08 19:43:00,
2013-08-08 15:58:00,75.0,50.0,-100.00,WSW,247,3.0,-999.0,41,-99.99,,,-99.99,780.679993,,2013-08-08 19:58:00,
2013-08-08 16:00:00,73.0,53.0,-100.00,SSW,202,4.0,-999.0,49,-99.99,,,-99.99,567.239990,,2013-08-08 20:00:00,
2013-08-08 16:32:00,73.0,53.0,-100.00,SSW,202,4.0,-999.0,49,-99.99,,,-99.99,567.239990,,2013-08-08 20:32:00,
2013-08-08 16:42:00,73.0,53.0,-100.00,SSW,202,4.0,-999.0,49,-99.99,,,-99.99,567.239990,,2013-08-08 20:42:00,
2013-08-08 16:52:00,73.0,53.0,-100.00,SSW,202,4.0,-999.0,49,-99.99,,,-99.99,567.239990,,2013-08-08 20:52:00,
2013-08-08 17:46:00,71.0,56.0,-100.00,South,180,7.0,-999.0,58,-99.99,,,-99.99,588.119995,,2013-08-08 21:46:00,
2013-08-08 17:57:00,71.0,56.0,-100.00,South,180,7.0,-999.0,58,-99.99,,,-99.99,588.119995,,2013-08-08 21:57:00,
2013-08-08 18:00:00,68.0,55.0,-100.00,South,180,7.0,-999.0,62,-99.99,,,-99.99,162.399994,,2013-08-08 22:00:00,
2013-08-08 18:37:00,68.0,55.0,-100.00,South,180,7.0,-999.0,62,-99.99,,,-99.99,162.399994,,2013-08-08 22:37:00,
2013-08-08 18:49:00,68.0,55.0,-100.00,South,180,7.0,-999.0,62,-99.99,,,-99.99,162.399994,,2013-08-08 22:49:00,
2013-08-08 18:58:00,68.0,55.0,-100.00,South,180,7.0,-999.0,62,-99.99,,,-99.99,162.399994,,2013-08-08 22:58:00,
2013-08-08 19:00:00,70.0,56.0,-100.00,South,180,6.0,-999.0,61,-99.99,,,-99.99,283.040009,,2013-08-08 23:00:00,
2013-08-08 19:37:00,70.0,56.0,-100.00,South,180,6.0,-999.0,61,-99.99,,,-99.99,283.040009,,2013-08-08 23:37:00,
2013-08-08 19:50:00,70.0,56.0,-100.00,South,180,6.0,-999.0,61,-99.99,,,-99.99,283.040009,,2013-08-08 23:50:00,
2013-08-08 19:57:00,70.0,56.0,-100.00,South,180,6.0,-999.0,61,-99.99,,,-99.99,283.040009,,2013-08-08 23:57:00,
2013-08-08 20:00:00,68.0,56.0,-100.00,South,180,4.0,-999.0,64,-99.99,,,-99.99,73.080002,,2013-08-09 00:00:00,
2013-08-08 20:48:00,68.0,56.0,-100.00,South,180,4.0,-999.0,64,-99.99,,,-99.99,73.080002,,2013-08-09 00:48:00,
2013-08-08 20:56:00,68.0,56.0,-100.00,South,180,4.0,-999.0,64,-99.99,,,-99.99,73.080002,,2013-08-09 00:56:00,
2013-08-08 21:00:00,66.0,57.0,-100.00,SW,225,2.0,-999.0,72,-99.99,,,-99.99,10.440000,,2013-08-09 01:00:00,
2013-08-08 21:37:00,66.0,57.0,-100.00,SW,225,2.0,-999.0,72,-99.99,,,-99.99,10.440000,,2013-08-09 01:37:00,
2013-08-08 21:47:00,66.0,57.0,-100.00,SW,225,2.0,-999.0,72,-99.99,,,-99.99,10.440000,,2013-08-09 01:47:00,
2013-08-08 21:59:00,66.0,57.0,-100.00,SW,225,2.0,-999.0,72,-99.99,,,-99.99,10.440000,,2013-08-09 01:59:00,
2013-08-08 22:39:00,63.0,58.0,-100.00,ESE,112,1.0,-999.0,84,-99.99,,,-99.99,0.000000,,2013-08-09 02:39:00,
2013-08-08 22:47:00,63.0,58.0,-100.00,ESE,112,1.0,-999.0,84,-99.99,,,-99.99,0.000000,,2013-08-09 02:47:00,
2013-08-08 22:57:00,63.0,58.0,-100.00,ESE,112,1.0,-999.0,84,-99.99,,,-99.99,0.000000,,2013-08-09 02:57:00,
2013-08-08 23:00:00,62.0,59.0,-100.00,SSW,202,1.0,-999.0,88,-99.99,,,-99.99,0.000000,,2013-08-09 03:00:00,
2013-08-08 23:36:00,62.0,59.0,-100.00,SSW,202,1.0,-999.0,88,-99.99,,,-99.99,0.000000,,2013-08-09 03:36:00,
2013-08-08 23:47:00,62.0,59.0,-100.00,SSW,202,1.0,-999.0,88,-99.99,,,-99.99,0.000000,,2013-08-09 03:47:00,
2013-08-08 23:56:00,62.0,59.0,-100.00,SSW,202,1.0,-999.0,88,-99.99,,,-99.99,0.000000,,2013-08-09 03:56:00,